Weather History for Pascagoula, MS

Change the Weather History Date:

Friday, January 10, 2014

  Actual Average Record
Temperature  
Mean Temperature 58 °F -  
Max Temperature 68 °F 58 °F 77 °F (1949)
Min Temperature 48 °F 41 °F 22 °F (1979)
Degree Days  
Heating Degree Days 7    
Growing Degree Days 8 (Base 50)    
Moisture  
Dew Point 57 °F    
Average Humidity 94    
Maximum Humidity 100    
Minimum Humidity 83    
Precipitation  
Precipitation 0.03 in - - ()
Sea Level Pressure  
Sea Level Pressure 30.05 in    
Wind  
Wind Speed 5 mph (SE)    
Max Wind Speed 13 mph    
Max Gust Speed 22 mph    
Visibility 6 miles    
Events Fog , Rain    
Averages and records for this station are not official NWS values.
T = Trace of Precipitation, MM = Missing Value Source: NWS Daily Summary

Daily Weather History Graph

Daily Weather History Graph

Search for Another Location

Airport:

Trip Planner

Search our weather history database for the weather conditions in past years. The results will help you decide how hot, cold, wet, or windy it might be!

Date:

Astronomy

Jan. 10, 2014 Rise Set
Actual Time 6:52 AM CST 5:11 PM CST
Civil Twilight 6:25 AM CST 5:37 PM CST
Nautical Twilight 5:56 AM CST 6:07 PM CST
Astronomical Twilight 5:27 AM CST 6:36 PM CST
Moon 1:09 PM CST (1/10) 2:05 AM CST (1/10)
Length of Visible Light 11h 11m
Length of Day
10h 19m
Waxing Gibbous, 75% of the Moon is Illuminated
Jan 10
Waxing Gibbous
Jan 15
Full
Jan 23
Last Quarter
Jan 30
New
Feb 6
First Quarter

Hourly Weather History & Observations

Time (CST) Temp. Dew Point Humidity Pressure Visibility Wind Dir Wind Speed Gust Speed Precip Events Conditions
12:53 AM 50.0 °F 46.9 °F 89% 30.23 in 10.0 mi NE 4.6 mph - N/A   Overcast
1:33 AM 50.0 °F 46.9 °F 89% 30.22 in 10.0 mi Calm Calm - N/A   Overcast
1:53 AM 50.0 °F 46.9 °F 89% 30.22 in 10.0 mi Calm Calm - N/A   Overcast
2:15 AM 48.9 °F 46.9 °F 93% 30.20 in 8.0 mi Calm Calm - N/A   Overcast
2:53 AM 48.9 °F 48.0 °F 97% 30.20 in 7.0 mi Calm Calm - N/A   Overcast
3:53 AM 50.0 °F 48.0 °F 93% 30.19 in 10.0 mi North 4.6 mph - N/A   Overcast
4:53 AM 50.0 °F 48.0 °F 93% 30.17 in 10.0 mi NNE 5.8 mph - N/A   Overcast
5:48 AM 50.0 °F 48.2 °F 94% 30.15 in 10.0 mi NNE 4.6 mph - N/A   Overcast
5:53 AM 50.0 °F 48.0 °F 93% 30.15 in 10.0 mi NE 4.6 mph - N/A   Overcast
6:53 AM 51.1 °F 48.9 °F 92% 30.15 in 10.0 mi East 3.5 mph - N/A   Overcast
7:16 AM 52.0 °F 48.9 °F 89% 30.15 in 10.0 mi Calm Calm - N/A   Overcast
7:53 AM 52.0 °F 50.0 °F 93% 30.16 in 10.0 mi ENE 5.8 mph - N/A   Overcast
8:53 AM 54.0 °F 51.1 °F 90% 30.17 in 10.0 mi East 3.5 mph - N/A   Overcast
9:53 AM 55.9 °F 53.1 °F 90% 30.17 in 8.0 mi Variable 3.5 mph - N/A   Overcast
10:53 AM 60.1 °F 55.0 °F 83% 30.13 in 10.0 mi Variable 3.5 mph - N/A   Overcast
11:53 AM 62.1 °F 57.9 °F 86% 30.09 in 7.0 mi ESE 4.6 mph - N/A   Overcast
12:53 PM 62.1 °F 60.1 °F 93% 30.04 in 4.0 mi ESE 9.2 mph - 0.00 in Rain Light Rain
1:36 PM 63.0 °F 60.1 °F 90% 30.01 in 10.0 mi ESE 6.9 mph - 0.00 in   Overcast
1:48 PM 62.6 °F 60.8 °F 94% 30.01 in 10.0 mi ESE 8.1 mph - 0.00 in   Overcast
1:53 PM 64.0 °F 60.1 °F 87% 30.01 in 10.0 mi ESE 6.9 mph - 0.00 in   Overcast
2:53 PM 63.0 °F 61.0 °F 93% 30.00 in 3.0 mi SE 8.1 mph - 0.00 in Rain Light Rain
3:53 PM 63.0 °F 61.0 °F 93% 30.00 in 9.0 mi SE 5.8 mph - 0.00 in   Overcast
4:53 PM 63.0 °F 61.0 °F 93% 29.99 in 8.0 mi SE 9.2 mph - N/A   Overcast
5:18 PM 63.0 °F 61.0 °F 93% 29.98 in 6.0 mi SE 10.4 mph - 0.00 in   Overcast
5:53 PM 62.1 °F 61.0 °F 96% 29.98 in 2.5 mi SE 9.2 mph - 0.00 in   Overcast
6:21 PM 62.1 °F 61.0 °F 96% 29.98 in 3.0 mi SE 8.1 mph - N/A   Overcast
6:31 PM 62.1 °F 62.1 °F 100% 29.98 in 2.0 mi SE 10.4 mph - N/A   Overcast
6:53 PM 62.1 °F 62.1 °F 100% 29.99 in 1.8 mi SE 8.1 mph - N/A   Overcast
7:53 PM 62.1 °F 61.0 °F 96% 29.99 in 1.0 mi SSE 8.1 mph - N/A   Mist
8:01 PM 62.1 °F 61.0 °F 96% 29.98 in 0.8 mi SSE 8.1 mph - N/A   Mist
8:45 PM 62.1 °F 61.0 °F 96% 29.97 in 1.8 mi SSE 5.8 mph - 0.01 in Rain Rain
8:53 PM 62.1 °F 61.0 °F 96% 29.97 in 3.0 mi SE 6.9 mph - 0.03 in Rain Rain
9:09 PM 62.1 °F 61.0 °F 96% 29.96 in 1.8 mi SSE 5.8 mph - 0.00 in Rain Light Rain
9:46 PM 62.1 °F 62.1 °F 100% 29.95 in 0.8 mi SSE 3.5 mph - 0.00 in   Mist
9:53 PM 62.1 °F 62.1 °F 100% 29.96 in 0.5 mi South 4.6 mph - 0.00 in Fog Fog
10:06 PM 63.0 °F 62.1 °F 97% 29.95 in 0.2 mi SSE 5.8 mph - N/A Fog Fog
10:26 PM 64.9 °F 64.9 °F 100% 29.95 in 0.5 mi South 5.8 mph - N/A Fog Fog
10:53 PM 66.9 °F 66.9 °F 100% 29.95 in 1.0 mi South 10.4 mph - N/A   Mist
11:10 PM 68.0 °F 66.9 °F 96% 29.94 in 2.5 mi South 9.2 mph 17.3 mph 0.00 in Rain Light Rain
11:23 PM 68.0 °F 66.9 °F 96% 29.94 in 1.2 mi South 9.2 mph 17.3 mph 0.00 in   Overcast
11:37 PM 66.9 °F 66.9 °F 100% 29.93 in 0.8 mi South 9.2 mph - 0.00 in   Mist
11:53 PM 66.9 °F 66.9 °F 100% 29.94 in 0.8 mi South 12.7 mph 21.9 mph 0.00 in   Mist